TimeMDT,TemperatureF,Dew PointF,Humidity,Sea Level PressureIn,VisibilityMPH,Wind Direction,Wind SpeedMPH,Gust SpeedMPH,PrecipitationIn,Events,Conditions,WindDirDegrees,DateUTC
12:53 AM,55.0,46.0,72,29.96,10.0,WSW,5.8,-,N/A,,Clear,250,2013-06-21 06:53:00
1:53 AM,57.9,48.0,70,29.91,10.0,NNW,15.0,-,N/A,,Mostly Cloudy,330,2013-06-21 07:53:00
2:53 AM,59.0,48.0,67,29.96,10.0,South,4.6,-,0.00,,Overcast,180,2013-06-21 08:53:00
3:53 AM,55.9,48.9,77,29.96,10.0,East,5.8,-,N/A,,Mostly Cloudy,100,2013-06-21 09:53:00
4:53 AM,55.9,51.1,84,30.00,10.0,Calm,Calm,-,0.01,,Mostly Cloudy,0,2013-06-21 10:53:00
5:53 AM,55.9,51.1,84,30.00,10.0,Calm,Calm,-,0.01,Rain,Light Rain,0,2013-06-21 11:53:00
6:53 AM,55.9,52.0,87,29.99,10.0,Calm,Calm,-,0.01,,Overcast,0,2013-06-21 12:53:00
7:53 AM,57.0,53.1,87,30.02,10.0,East,5.8,-,0.03,Rain,Light Rain,90,2013-06-21 13:53:00
8:53 AM,57.9,54.0,87,30.04,10.0,NNW,4.6,-,0.02,Rain,Light Rain,340,2013-06-21 14:53:00
9:53 AM,62.1,53.1,72,30.03,10.0,Calm,Calm,-,0.00,,Overcast,0,2013-06-21 15:53:00
10:53 AM,64.9,55.0,70,30.03,10.0,Calm,Calm,-,N/A,,Overcast,0,2013-06-21 16:53:00
11:53 AM,71.1,50.0,47,30.01,10.0,Calm,Calm,-,N/A,,Scattered Clouds,0,2013-06-21 17:53:00
12:53 PM,73.9,48.9,41,29.97,10.0,North,5.8,-,N/A,,Clear,10,2013-06-21 18:53:00
1:53 PM,75.0,50.0,41,29.95,10.0,NW,8.1,-,N/A,,Clear,320,2013-06-21 19:53:00
2:53 PM,73.9,48.0,40,29.95,10.0,East,5.8,-,N/A,,Mostly Cloudy,80,2013-06-21 20:53:00
3:53 PM,73.0,50.0,44,29.97,10.0,ENE,6.9,-,N/A,,Clear,60,2013-06-21 21:53:00
4:53 PM,72.0,52.0,49,29.97,10.0,NNE,8.1,-,N/A,,Mostly Cloudy,30,2013-06-21 22:53:00
5:53 PM,69.1,52.0,54,29.98,10.0,NNE,8.1,-,N/A,,Overcast,20,2013-06-21 23:53:00
6:18 PM,66.2,53.6,64,29.97,10.0,North,15.0,-,0.00,Rain-Thunderstorm,Light Rain,10,2013-06-22 00:18:00
6:53 PM,64.0,55.0,73,30.00,10.0,NNE,6.9,-,0.01,Rain-Thunderstorm,Light Rain,20,2013-06-22 00:53:00
7:01 PM,62.6,55.4,77,30.00,10.0,SE,3.5,-,0.00,Rain,Light Rain,130,2013-06-22 01:01:00
7:53 PM,60.1,57.0,90,30.02,9.0,West,5.8,-,0.03,Rain,Light Rain,260,2013-06-22 01:53:00
8:53 PM,59.0,57.0,93,30.00,10.0,NE,8.1,-,0.03,Rain,Light Rain,50,2013-06-22 02:53:00
9:53 PM,57.0,54.0,89,30.01,10.0,West,12.7,-,0.00,,Clear,260,2013-06-22 03:53:00
10:53 PM,55.9,54.0,93,30.01,10.0,Calm,Calm,-,N/A,,Clear,0,2013-06-22 04:53:00
11:53 PM,53.1,52.0,96,29.98,10.0,Calm,Calm,-,N/A,,Clear,0,2013-06-22 05:53:00